FW5767 Weather Reports


Display with metric or nautical units.
time (UTC)temp
F
wind
direction
speed
MPH
gust
MPH
rain 1hr
in
rain 24hr
in
rain mn
in
humidity
%
barometer
mb
20210621140739 57 34 9.0 17.0 0.01 0.08 0.06 89 1012.2
20210621140241 57 46 7.0 15.0 0.01 0.08 0.06 89 1012.1
20210621135740 57 25 8.0 13.0 0.01 0.08 0.06 89 1012.1
20210621135243 57 37 8.0 13.0 0.01 0.08 0.06 89 1012.0
20210621134739 57 41 8.0 15.0 0.01 0.08 0.06 89 1012.0
20210621134243 57 28 9.0 15.0 0.01 0.09 0.06 89 1012.0
20210621133741 57 316 9.0 16.0 0.01 0.09 0.06 89 1012.0
20210621133240 57 34 8.0 16.0 0.01 0.09 0.06 89 1011.9
20210621132740 58 34 7.0 11.0 0.01 0.09 0.06 90 1011.8
20210621132244 57 28 7.0 14.0 0.00 0.08 0.05 90 1011.7
20210621131739 57 22 7.0 14.0 0.00 0.08 0.05 89 1011.7
20210621131241 57 32 7.0 14.0 0.00 0.08 0.05 89 1011.6
20210621130739 57 20 8.0 13.0 0.00 0.08 0.05 89 1011.6
20210621130240 57 24 8.0 14.0 0.00 0.08 0.05 89 1011.6
20210621125738 57 35 8.0 14.0 0.01 0.08 0.05 89 1011.6
20210621125236 57 0 8.0 14.0 0.01 0.09 0.05 89 1011.5
20210621124733 57 32 8.0 14.0 0.01 0.09 0.05 89 1011.4
20210621124239 57 36 9.0 14.0 0.01 0.09 0.05 90 1011.4
20210621123733 57 28 8.0 14.0 0.01 0.09 0.05 89 1011.4
20210621123237 57 29 8.0 12.0 0.01 0.09 0.05 89 1011.3
20210621122733 57 41 8.0 13.0 0.01 0.09 0.05 89 1011.3
20210621122239 57 55 9.0 14.0 0.01 0.09 0.05 89 1011.3
20210621121735 57 5 9.0 15.0 0.01 0.09 0.05 89 1011.1
20210621121235 58 41 8.0 15.0 0.01 0.09 0.05 90 1011.0
20210621120734 58 27 9.0 15.0 0.01 0.09 0.05 90 1011.1
20210621120236 57 47 10.0 16.0 0.01 0.09 0.05 90 1010.9
20210621115734 57 32 10.0 16.0 0.00 0.09 0.04 90 1011.0
20210621115231 57 17 9.0 15.0 0.00 0.09 0.04 91 1010.9
20210621114733 57 34 9.0 15.0 0.00 0.09 0.04 90 1010.8
20210621114231 57 28 9.0 17.0 0.00 0.09 0.04 90 1010.9
20210621113733 57 20 9.0 13.0 0.00 0.09 0.04 90 1010.9
20210621113234 57 28 9.0 17.0 0.01 0.09 0.04 90 1010.9
20210621112732 57 31 8.0 13.0 0.01 0.09 0.04 90 1010.9
20210621112233 57 24 7.0 13.0 0.01 0.09 0.04 90 1010.7
20210621111735 56 38 8.0 13.0 0.01 0.09 0.04 90 1010.7
20210621111231 56 19 7.0 13.0 0.01 0.09 0.04 90 1010.6
20210621110730 56 41 8.0 14.0 0.01 0.09 0.04 90 1010.7
20210621110232 56 30 9.0 15.0 0.01 0.10 0.04 89 1010.7
20210621105730 56 22 9.0 15.0 0.01 0.10 0.04 90 1010.7
20210621105230 56 29 9.0 14.0 0.01 0.10 0.04 90 1010.7
20210621104730 56 30 10.0 15.0 0.01 0.10 0.04 90 1010.8
20210621104230 56 24 10.0 15.0 0.01 0.10 0.04 90 1010.6
20210621103732 56 40 9.0 15.0 0.01 0.10 0.04 90 1010.6
20210621103231 56 13 10.0 14.0 0.00 0.10 0.03 90 1010.6
20210621102728 56 36 10.0 15.0 0.00 0.10 0.03 90 1010.5
20210621102229 56 25 10.0 15.0 0.00 0.10 0.03 90 1010.6
20210621101730 56 29 10.0 15.0 0.01 0.10 0.03 90 1010.5
20210621101229 56 14 9.0 15.0 0.01 0.11 0.03 90 1010.5
20210621100730 56 26 8.0 15.0 0.01 0.11 0.03 90 1010.5
20210621100229 56 32 8.0 12.0 0.01 0.11 0.03 90 1010.4
20210621095730 56 25 9.0 13.0 0.01 0.11 0.03 90 1010.5
20210621095229 56 29 8.0 15.0 0.01 0.12 0.03 90 1010.4
20210621094731 56 26 8.0 15.0 0.01 0.12 0.03 90 1010.3
20210621094230 56 31 9.0 18.0 0.01 0.12 0.03 91 1010.2
20210621093729 56 29 9.0 18.0 0.01 0.13 0.03 90 1010.1
20210621093230 56 31 9.0 14.0 0.01 0.13 0.03 91 1010.1
20210621092731 56 31 9.0 13.0 0.01 0.13 0.03 90 1010.1
20210621092230 56 21 9.0 13.0 0.01 0.13 0.03 91 1010.1
20210621091729 56 0 8.0 13.0 0.00 0.13 0.02 90 1009.9
20210621091234 56 23 8.0 13.0 0.00 0.13 0.02 91 1009.8
20210621090731 56 30 7.0 12.0 0.00 0.13 0.02 91 1009.9
20210621090232 56 30 7.0 12.0 0.00 0.13 0.02 91 1009.9
20210621085731 56 22 7.0 14.0 0.01 0.13 0.02 91 1009.8
20210621085230 56 40 8.0 13.0 0.01 0.14 0.02 90 1009.9
20210621084730 56 37 9.0 15.0 0.01 0.14 0.02 90 1009.9
20210621084230 56 19 7.0 15.0 0.01 0.15 0.02 90 1009.8
20210621083730 56 38 6.0 13.0 0.01 0.15 0.02 91 1009.8
20210621083230 56 19 7.0 13.0 0.01 0.15 0.02 91 1009.6
20210621082729 56 40 7.0 13.0 0.01 0.16 0.02 91 1009.6
20210621082231 56 25 8.0 14.0 0.01 0.16 0.02 91 1009.6
20210621081729 56 55 8.0 14.0 0.01 0.17 0.02 91 1009.5
20210621081229 56 22 9.0 14.0 0.01 0.17 0.02 90 1009.4
20210621080729 56 79 9.0 15.0 0.01 0.17 0.02 90 1009.4
20210621080229 56 18 8.0 15.0 0.01 0.17 0.02 91 1009.2
20210621075729 56 24 8.0 15.0 0.00 0.17 0.02 91 1009.2
20210621075231 56 24 8.0 15.0 0.00 0.17 0.02 91 1009.2
20210621074728 56 56 9.0 14.0 0.00 0.18 0.02 90 1009.0
20210621074230 56 34 9.0 16.0 0.01 0.18 0.02 90 1009.0
20210621073729 56 43 9.0 16.0 0.01 0.19 0.02 90 1009.0
20210621073229 56 23 9.0 15.0 0.01 0.19 0.02 90 1008.9
20210621072729 56 24 9.0 15.0 0.01 0.20 0.02 90 1008.9
20210621072230 56 46 7.0 15.0 0.01 0.20 0.02 90 1008.8
20210621071729 56 36 8.0 16.0 0.01 0.20 0.02 90 1008.7
20210621071229 56 20 9.0 16.0 0.01 0.21 0.02 91 1008.7
20210621070730 56 21 9.0 15.0 0.01 0.21 0.02 91 1008.7
20210621070228 56 34 9.0 15.0 0.01 0.22 0.02 90 1008.6
20210621065730 56 30 9.0 16.0 0.01 0.23 0.02 91 1008.4
20210621065232 56 18 9.0 16.0 0.01 0.23 0.02 90 1008.4
20210621064731 56 30 10.0 16.0 0.01 0.24 0.02 90 1008.4
20210621064229 56 24 10.0 16.0 0.00 0.24 0.01 90 1008.2
20210621063730 56 42 10.0 14.0 0.00 0.24 0.01 90 1008.2
20210621063228 56 355 9.0 14.0 0.00 0.24 0.01 90 1008.1
20210621062729 56 29 10.0 16.0 0.00 0.25 0.01 90 1008.1
20210621062232 56 5 10.0 16.0 0.00 0.26 0.01 90 1008.1
20210621061729 56 11 10.0 14.0 0.00 0.26 0.01 90 1008.0
20210621061231 56 33 9.0 14.0 0.00 0.27 0.01 90 1008.0
20210621060732 56 19 10.0 15.0 0.00 0.28 0.01 90 1008.0
20210621060229 56 26 10.0 15.0 0.01 0.28 0.01 90 1008.0
20210621055731 56 28 10.0 17.0 0.01 0.28 0.01 90 1008.0
20210621055231 56 61 10.0 16.0 0.01 0.29 0.01 90 1008.0
20210621054729 56 54 10.0 17.0 0.01 0.30 0.01 90 1007.9
20210621054229 56 20 11.0 17.0 0.01 0.30 0.01 90 1007.9
20210621053728 56 44 11.0 17.0 0.01 0.31 0.01 89 1007.7
20210621053229 56 65 10.0 17.0 0.01 0.31 0.01 90 1007.8
20210621052730 56 26 9.0 16.0 0.01 0.31 0.01 89 1007.8
20210621052228 56 18 9.0 16.0 0.01 0.32 0.01 89 1007.8
20210621051729 56 18 10.0 16.0 0.01 0.33 0.01 89 1007.9
20210621051228 56 22 9.0 16.0 0.01 0.33 0.01 89 1007.9
20210621050730 56 34 9.0 13.0 0.01 0.34 0.01 89 1007.9
20210621050232 56 66 9.0 14.0 0.00 0.34 0.00 89 1008.0
20210621045730 56 24 9.0 14.0 0.00 0.34 0.00 89 1007.9
20210621045229 56 18 9.0 15.0 0.00 0.35 0.00 89 1007.9
20210621044731 56 31 9.0 16.0 0.00 0.35 0.00 89 1007.9
20210621044229 56 46 9.0 16.0 0.00 0.35 0.00 89 1007.9
20210621043729 56 57 10.0 16.0 0.00 0.36 0.00 88 1008.0
20210621043229 56 19 10.0 16.0 0.00 0.37 0.00 88 1008.0
20210621042731 56 38 10.0 16.0 0.00 0.37 0.00 89 1008.1
20210621042228 56 31 10.0 15.0 0.00 0.38 0.00 89 1008.1
20210621041732 56 24 9.0 13.0 0.00 0.39 0.00 88 1008.2
20210621041229 56 28 8.0 12.0 0.00 0.39 0.00 88 1008.2
20210621040733 56 32 8.0 13.0 0.00 0.39 0.00 88 1008.3
20210621040230 56 48 7.0 13.0 0.00 0.40 0.00 88 1008.3
20210621035731 56 32 7.0 13.0 0.00 0.41 0.00 87 1008.3
20210621035229 56 33 8.0 15.0 0.00 0.42 0.00 87 1008.2
20210621034728 56 47 8.0 15.0 0.00 0.43 0.00 87 1008.2
20210621034225 56 31 9.0 15.0 0.00 0.43 0.00 87 1008.2
20210621033722 56 17 9.0 15.0 0.00 0.43 0.00 87 1008.1
20210621033219 56 55 10.0 15.0 0.00 0.44 0.00 86 1008.2
20210621032717 57 34 10.0 15.0 0.00 0.45 0.00 86 1008.2
20210621032216 57 28 10.0 16.0 0.00 0.46 0.00 86 1008.3
20210621031716 57 63 11.0 17.0 0.00 0.46 0.00 86 1008.4
20210621031218 57 39 11.0 18.0 0.00 0.47 0.00 85 1008.4
20210621030719 57 25 11.0 18.0 0.00 0.48 0.00 85 1008.5
20210621030215 57 66 11.0 18.0 0.00 0.49 0.00 85 1008.6
20210621025717 57 30 11.0 18.0 0.00 0.49 0.00 85 1008.7
20210621025214 58 36 9.0 16.0 0.00 0.50 0.00 85 1008.8
20210621024714 58 34 6.0 15.0 0.00 0.50 0.00 85 1008.8
20210621024215 58 30 5.0 10.0 0.00 0.51 0.00 85 1008.8
20210621023715 58 28 5.0 10.0 0.00 0.52 0.00 85 1008.8
20210621023214 58 60 5.0 10.0 0.00 0.53 0.00 85 1008.7
20210621022714 58 26 6.0 11.0 0.00 0.54 0.00 84 1008.7
20210621022214 58 46 6.0 13.0 0.00 0.54 0.00 84 1008.7
20210621021715 58 43 7.0 15.0 0.00 0.55 0.00 84 1008.6
20210621021213 58 51 7.0 15.0 0.00 0.56 0.00 84 1008.5
20210621020712 58 87 7.0 14.0 0.00 0.57 0.00 84 1008.7
20210621020212 58 26 8.0 16.0 0.00 0.57 0.00 85 1008.5
20210621015713 58 30 8.0 16.0 0.00 0.57 0.00 85 1008.6
20210621015213 58 5 6.0 17.0 0.00 0.58 0.00 85 1008.6
20210621014714 58 49 8.0 15.0 0.00 0.59 0.00 84 1008.7
20210621014211 58 58 9.0 17.0 0.00 0.60 0.00 84 1008.7
20210621013710 58 98 10.0 20.0 0.00 0.60 0.00 84 1008.7
20210621013210 58 53 9.0 20.0 0.00 0.61 0.00 84 1008.7
20210621012711 58 33 8.0 17.0 0.00 0.61 0.00 85 1008.8
20210621012211 58 71 9.0 17.0 0.00 0.61 0.00 85 1008.6
20210621011708 58 26 9.0 17.0 0.00 0.62 0.00 85 1008.5
20210621011206 58 63 10.0 20.0 0.00 0.63 0.00 85 1008.7
20210621010706 58 9 10.0 20.0 0.00 0.64 0.00 85 1008.7
20210621010204 58 32 8.0 17.0 0.00 0.64 0.00 85 1008.6
20210621005704 58 59 9.0 16.0 0.00 0.65 0.00 85 1008.7
20210621005206 58 34 10.0 16.0 0.00 0.65 0.00 85 1008.8
20210621004705 58 42 11.0 16.0 0.00 0.66 0.00 85 1008.6
20210621004204 58 29 11.0 17.0 0.00 0.66 0.00 85 1008.6
20210621003706 58 29 11.0 20.0 0.00 0.67 0.00 85 1008.7
20210621003206 58 19 12.0 20.0 0.00 0.68 0.00 85 1008.5
20210621002702 58 39 12.0 20.0 0.00 0.69 0.00 85 1008.5
20210621002203 58 29 12.0 20.0 0.00 0.69 0.00 85 1008.5
20210621001702 58 33 11.0 19.0 0.00 0.69 0.00 85 1008.4
20210621001204 58 24 12.0 19.0 0.00 0.71 0.00 86 1008.5
20210621000702 58 28 12.0 19.0 0.00 0.71 0.00 86 1008.4
20210621000205 58 26 12.0 18.0 0.00 0.72 0.00 86 1008.5
20210620235700 58 15 12.0 18.0 0.00 0.73 0.00 86 1008.4
20210620235200 58 40 12.0 18.0 0.00 0.74 0.00 86 1008.4
20210620234700 58 42 11.0 17.0 0.00 0.75 0.00 86 1008.6
20210620234200 58 34 11.0 16.0 0.00 0.76 0.00 86 1008.5
20210620233700 58 45 12.0 17.0 0.00 0.76 0.00 86 1008.6
20210620233203 58 26 10.0 17.0 0.00 0.77 0.00 86 1008.6
20210620232700 59 13 11.0 17.0 0.00 0.79 0.00 86 1008.4
20210620232200 59 38 12.0 19.0 0.00 0.80 0.00 86 1008.4
20210620231700 59 42 11.0 19.0 0.00 0.82 0.00 86 1008.4
20210620231200 59 15 11.0 19.0 0.00 0.83 0.00 86 1008.5
20210620230700 59 32 11.0 16.0 0.00 0.83 0.00 87 1008.6
20210620230200 59 13 10.0 16.0 0.00 0.83 0.00 87 1008.5
20210620225702 59 31 10.0 16.0 0.00 0.84 0.00 87 1008.7
20210620225202 59 40 11.0 18.0 0.00 0.84 0.00 87 1008.8
20210620224702 59 35 11.0 18.0 0.00 0.84 0.00 87 1008.5
20210620224200 59 15 12.0 17.0 0.00 0.84 0.00 87 1008.5
20210620223700 59 32 12.0 17.0 0.00 0.84 0.00 88 1008.5
20210620223200 59 23 11.0 14.0 0.00 0.84 0.00 88 1008.6
20210620222702 59 30 10.0 16.0 0.00 0.84 0.00 88 1008.7
20210620222201 59 22 10.0 16.0 0.00 0.84 0.00 88 1008.7
20210620221659 59 34 10.0 17.0 0.00 0.84 0.00 88 1008.5
20210620221159 59 38 10.0 17.0 0.00 0.84 0.00 88 1008.7
20210620220701 60 31 9.0 16.0 0.00 0.84 0.00 88 1008.8
20210620220158 60 28 9.0 14.0 0.00 0.84 0.00 88 1008.8
20210620215701 60 20 8.0 12.0 0.00 0.84 0.84 88 1008.9
20210620215156 60 28 9.0 13.0 0.00 0.84 0.84 88 1009.1
20210620214656 60 26 8.0 13.0 0.00 0.84 0.84 88 1009.2
20210620214156 59 9 7.0 11.0 0.00 0.84 0.84 88 1009.4
20210620213655 59 36 8.0 12.0 0.00 0.84 0.84 88 1009.4
20210620213154 59 43 8.0 12.0 0.00 0.84 0.84 88 1009.4
20210620212654 59 39 7.0 12.0 0.00 0.84 0.84 88 1009.3
20210620212152 59 19 7.0 11.0 0.00 0.84 0.84 87 1009.4
20210620211655 59 19 7.0 12.0 0.00 0.84 0.84 88 1009.5
20210620211151 59 14 8.0 11.0 0.00 0.84 0.84 88 1009.4
20210620210650 60 5 8.0 13.0 0.00 0.84 0.84 88 1009.4
20210620210150 60 23 8.0 13.0 0.00 0.84 0.84 87 1009.4
20210620205646 60 30 8.0 12.0 0.00 0.84 0.84 87 1009.4
20210620205148 60 37 8.0 13.0 0.00 0.84 0.84 87 1009.3
20210620204646 60 26 8.0 13.0 0.00 0.84 0.84 87 1009.3
20210620204146 60 29 8.0 13.0 0.00 0.84 0.84 87 1009.1
20210620203648 60 34 8.0 13.0 0.00 0.84 0.84 86 1009.2
20210620203146 61 26 8.0 13.0 0.00 0.84 0.84 86 1009.2
20210620202646 61 25 8.0 12.0 0.00 0.84 0.84 87 1009.2
20210620202146 61 55 8.0 12.0 0.00 0.84 0.84 87 1009.3
20210620201642 61 37 8.0 12.0 0.00 0.84 0.84 86 1009.2
20210620201144 61 22 9.0 12.0 0.00 0.84 0.84 86 1009.1
20210620200642 61 30 8.0 12.0 0.00 0.84 0.84 85 1009.1
20210620200144 61 26 7.0 11.0 0.00 0.84 0.84 85 1009.1
20210620195644 62 17 7.0 12.0 0.00 0.84 0.84 85 1009.2
20210620195144 62 28 8.0 14.0 0.00 0.84 0.84 84 1009.1
20210620194643 62 40 9.0 14.0 0.00 0.84 0.84 84 1009.0
20210620194144 62 24 8.0 12.0 0.00 0.84 0.84 84 1009.0
20210620193644 62 22 8.0 12.0 0.00 0.84 0.84 84 1009.0
20210620193146 63 52 8.0 12.0 0.00 0.84 0.84 83 1009.0
20210620192641 63 71 7.0 12.0 0.00 0.84 0.84 83 1009.1
20210620192143 63 100 7.0 12.0 0.00 0.84 0.84 83 1009.0
20210620191645 63 49 7.0 12.0 0.00 0.84 0.84 83 1008.9
20210620191142 63 22 6.0 12.0 0.00 0.84 0.84 83 1009.0
20210620190642 63 57 5.0 12.0 0.00 0.84 0.84 83 1009.0
20210620190145 63 32 6.0 13.0 0.00 0.84 0.84 83 1008.8
20210620185641 63 28 7.0 13.0 0.00 0.84 0.84 83 1008.9
20210620185141 63 29 7.0 12.0 0.00 0.84 0.84 83 1008.8
20210620184642 63 37 8.0 12.0 0.00 0.84 0.84 83 1008.9
20210620184140 63 44 8.0 12.0 0.00 0.84 0.84 82 1008.9
20210620183640 64 41 7.0 12.0 0.00 0.84 0.84 82 1008.8
20210620183139 64 39 6.0 12.0 0.01 0.84 0.84 81 1008.8
20210620182640 64 32 7.0 12.0 0.01 0.84 0.84 81 1008.8
20210620182140 65 38 7.0 12.0 0.01 0.84 0.84 80 1008.8
20210620181642 65 25 6.0 10.0 0.01 0.84 0.84 79 1008.9
20210620181140 65 63 5.0 10.0 0.01 0.84 0.84 78 1009.0
20210620180638 66 31 5.0 11.0 0.01 0.84 0.84 79 1009.1
20210620180137 66 32 4.0 11.0 0.01 0.84 0.84 79 1009.2
20210620175638 66 47 5.0 12.0 0.01 0.84 0.84 79 1009.0
20210620175138 66 49 5.0 12.0 0.01 0.84 0.84 78 1008.9
20210620174638 66 42 4.0 10.0 0.01 0.84 0.84 79 1008.9
20210620174139 66 53 4.0 9.0 0.01 0.84 0.84 80 1008.9
20210620173639 66 70 4.0 9.0 0.01 0.84 0.84 79 1008.9
20210620173137 65 98 3.0 8.0 0.00 0.83 0.83 80 1009.1
20210620172636 65 73 4.0 10.0 0.00 0.83 0.83 81 1009.1
20210620172136 65 90 4.0 10.0 0.00 0.83 0.83 79 1009.0
20210620171634 65 63 4.0 10.0 0.00 0.83 0.83 79 1009.1
20210620171135 65 95 5.0 13.0 0.00 0.83 0.83 80 1008.8
20210620170636 65 52 5.0 13.0 0.00 0.83 0.83 79 1008.8
20210620170136 66 59 5.0 15.0 0.00 0.83 0.83 78 1008.8
20210620165632 66 51 6.0 15.0 0.00 0.83 0.83 77 1008.9
20210620165132 67 71 6.0 12.0 0.01 0.83 0.83 77 1008.9
20210620164631 67 65 6.0 12.0 0.01 0.83 0.83 77 1008.8
20210620164132 68 74 7.0 14.0 0.01 0.83 0.83 76 1008.7
20210620163633 69 59 7.0 14.0 0.01 0.83 0.83 76 1008.4
20210620163131 69 41 6.0 12.0 0.01 0.83 0.83 76 1008.4
20210620162631 69 53 5.0 12.0 0.01 0.83 0.83 76 1008.3
20210620162132 69 38 4.0 9.0 0.01 0.83 0.83 75 1008.4
20210620161634 69 62 4.0 10.0 0.01 0.83 0.83 76 1008.4
20210620161137 69 24 3.0 10.0 0.01 0.83 0.83 75 1008.3
20210620160632 69 71 1.0 9.0 0.01 0.83 0.83 74 1008.4
20210620160133 69 215 2.0 5.0 0.01 0.83 0.83 67 1008.2
20210620155631 69 215 3.0 5.0 0.00 0.83 0.83 68 1008.2
20210620155133 69 213 3.0 5.0 0.00 0.83 0.83 69 1008.2
20210620154632 69 218 3.0 5.0 0.00 0.83 0.83 70 1008.2
20210620154132 69 219 3.0 6.0 0.00 0.83 0.83 69 1008.2
20210620153634 69 221 4.0 7.0 0.01 0.83 0.83 69 1008.3
20210620153131 69 251 4.0 8.0 0.01 0.83 0.83 70 1008.3
20210620152633 68 291 3.0 7.0 0.01 0.83 0.83 71 1008.5
20210620152134 68 232 2.0 6.0 0.01 0.83 0.83 73 1008.7
20210620151631 68 246 2.0 4.0 0.01 0.83 0.83 74 1008.7
20210620151132 68 246 2.0 7.0 0.01 0.83 0.83 73 1008.7
20210620150630 68 243 2.0 7.0 0.01 0.83 0.83 73 1008.7
20210620150131 68 278 2.0 6.0 0.01 0.83 0.83 74 1008.8
20210620145630 68 280 2.0 6.0 0.01 0.83 0.83 74 1008.8
20210620145130 68 244 1.0 4.0 0.01 0.83 0.83 75 1008.8
20210620144629 68 325 2.0 4.0 0.01 0.83 0.83 75 1008.8
20210620144128 68 319 2.0 9.0 0.02 0.83 0.83 75 1008.7
20210620143630 67 332 3.0 8.0 0.01 0.82 0.82 75 1008.7
20210620143128 67 279 4.0 9.0 0.01 0.82 0.82 76 1008.7
20210620142631 67 305 4.0 8.0 0.01 0.82 0.82 75 1008.8
20210620142129 68 309 3.0 8.0 0.01 0.82 0.82 75 1008.7
20210620141632 68 311 4.0 10.0 0.01 0.82 0.82 75 1008.6
20210620141132 68 340 4.0 10.0 0.01 0.82 0.82 74 1008.6